Regional Weather Roundup
Issued by NWS

Home | Current Version | Previous Version | Text Only | Print | Product List | Glossary On
Versions: 1 2 3 4 5 6 7 8 9 10 11 12 13 14 15 16 17 18 19 20 21 22 23 24 25 26 27 28 29 30 31 32 33 34 35 36 37 38 39 40 41 42 43 44 45 46 47 48 49 50
000
ASUS43 KBIS 241810
RWRND

NORTH DAKOTA REGIONAL WEATHER ROUNDUP
NATIONAL WEATHER SERVICE BISMARCK ND
100 PM CDT SUN JUL 24 2016

NOTE: "FAIR" INDICATES FEW OR NO CLOUDS BELOW 12,000 FEET WITH NO
SIGNIFICANT WEATHER AND/OR OBSTRUCTIONS TO VISIBILITY.


NDZ001>003-009>011-017-241900-
NORTHWEST NORTH DAKOTA

CITY           SKY/WX    TMP DP  RH WIND       PRES   REMARKS
WILLISTON      SUNNY     81  49  32 N9G18     30.05F
6HR MIN TEMP:  57; 6HR MAX TEMP:  81;

MINOT          MOSUNNY   81  55  40 W22G30    30.00S
MINOT AFB      MOSUNNY   75  57  53 NW17G25   29.99R
$$

NDZ018>021-031>035-040>046-241900-
SOUTHWEST NORTH DAKOTA

CITY           SKY/WX    TMP DP  RH WIND       PRES   REMARKS
BISMARCK       SUNNY     80  56  43 NW14      30.04F
6HR MIN TEMP:  61; 6HR MAX TEMP:  80;

DICKINSON      SUNNY     78  49  35 NW8       30.08S
GARRISON         N/A     76  58  53 W15G21    30.04S
6HR MIN TEMP:  58; 6HR MAX TEMP:  76;

HETTINGER ARPT SUNNY     82  46  28 W13       30.11F
$$

NDZ004>008-012>016-024-026-027-054-241900-
NORTHEAST NORTH DAKOTA

CITY           SKY/WX    TMP DP  RH WIND       PRES   REMARKS
GRAND FORKS    PTSUNNY   78  63  59 W14G22    29.88R
GRND FRKS AFB  MOSUNNY   78  62  57 W14G24    29.89R
DEVILS LAKE    SUNNY     74  59  59 W21G26    29.94S
$$

NDZ022-023-025-028>030-036>039-047>053-241900-
SOUTHEAST NORTH DAKOTA

CITY           SKY/WX    TMP DP  RH WIND       PRES   REMARKS
FARGO          SUNNY     81  61  50 W18G28    29.91S
6HR MIN TEMP:  64; 6HR MAX TEMP:  81;

JAMESTOWN      SUNNY     77  56  48 NW21      29.98S
$$




USA.gov is the U.S. government's official web portal to all federal, state and local government web resources and services.